This demonstration page uses our WeatherBlox Daily Observations layout. Learn more.

Left ArrowRight Arrow

Hourly Observations for January 7, 2019

Temp ( °F °C ) Dew Point ( °F °C ) Humidity (%) Winds ( mph kmh ) Pressure ( in mb ) Visibility ( mi km ) Precip ( " mm )
12:59 am 00:59 Mostly Clear 46 7.8 33 0.6 61 61 NNE 13 20 30.34 1027 10 16 0.00 0.00
1:59 am 01:59 Mostly Clear 45 7.2 30 -1.1 56 56 NNE 15 24 30.36 1028 10 16 0.00 0.00
2:59 am 02:59 Mostly Cloudy 45 7.2 32 0 61 61 NNE 14 22 30.37 1028 10 16 0.00 0.00
3:59 am 03:59 Cloudy 45 7.2 29 -1.7 54 54 NNE 14 22 30.38 1029 10 16 0.00 0.00
4:59 am 04:59 Partly Cloudy 42 5.6 29 -1.7 60 60 NE 13 20 30.39 1029 10 16 0.00 0.00
5:59 am 05:59 Mostly Clear 41 5 25 -3.9 53 53 NE 14 22 30.40 1030 10 16 0.00 0.00
6:59 am 06:59 Mostly Cloudy 40 4.4 28 -2.2 63 63 NE 14 22 30.42 1030 10 16 0.00 0.00
7:59 am 07:59 Mostly Cloudy 41 5 27 -2.8 57 57 NE 17 28 30.45 1031 10 16 0.00 0.00
8:59 am 08:59 Mostly Cloudy 42 5.6 30 -1.1 62 62 ENE 14 22 30.48 1032 10 16 0.00 0.00
9:59 am 09:59 Mostly Cloudy 44 6.7 28 -2.2 53 53 ENE 13 20 30.49 1033 10 16 0.00 0.00
10:59 am 10:59 Mostly Cloudy 45 7.2 29 -1.7 54 54 E 10 17 30.49 1033 10 16 0.00 0.00
11:59 am 11:59 Mostly Cloudy 45 7.2 30 -1.1 56 56 NE 14 22 30.45 1031 10 16 0.00 0.00
12:59 pm 12:59 Mostly Cloudy 44 6.7 30 -1.1 58 58 ENE 14 22 30.42 1030 10 16 0.00 0.00
1:59 pm 13:59 Mostly Cloudy 44 6.7 32 0 63 63 ENE 10 17 30.41 1030 10 16 0.00 0.00
2:59 pm 14:59 Mostly Cloudy 44 6.7 32 0 63 63 E 12 19 30.41 1030 10 16 0.00 0.00
3:59 pm 15:59 Mostly Cloudy 44 6.7 33 0.6 65 65 E 12 19 30.41 1030 10 16 0.00 0.00
4:59 pm 16:59 Mostly Cloudy 43 6.1 32 0 65 65 E 9 15 30.39 1029 10 16 0.00 0.00
5:59 pm 17:59 Mostly Cloudy 42 5.6 33 0.6 71 71 ESE 3 6 30.40 1029 10 16 0.00 0.00
6:59 pm 18:59 Mostly Cloudy 42 5.6 34 1.1 73 73 ESE 5 7 30.38 1029 10 16 0.00 0.00
7:59 pm 19:59 Mostly Cloudy 42 5.6 34 1.1 73 73 ESE 3 6 30.35 1028 10 16 0.00 0.00
8:59 pm 20:59 Mostly Cloudy 42 5.6 36 2.2 79 79 E 3 6 30.33 1027 10 16 0.00 0.00
9:59 pm 21:59 Mostly Cloudy 43 6.1 36 2.2 76 76 ESE 6 9 30.30 1026 10 16 0.00 0.00
10:59 pm 22:59 Mostly Cloudy 45 7.2 38 3.3 77 77 ESE 3 6 30.27 1025 10 16 0.00 0.00
11:59 pm 23:59 Cloudy 45 7.2 40 4.4 83 83 Calm 30.24 1024 10 16 0.00 0.00

Powered by AerisWeather